Location: Newark
(46.9000°N, 28.3500°E)
Time: 17:25:42
(UTC+00:00)

Vanguard 1 Rocket - Pass Details

Date: 03 September 2019
Orbit: 650 x 4226 km, 34.3° (Epoch: 13 October)

Event Time Altitude Azimuth Distance (km) Brightness Sun altitude
Rises 21:10:24 0° 233° (SW) 4,495 - -34.3°
Reaches altitude 10° 21:14:50 10° 218° (SW) 2,968 - -34.5°
Maximum altitude 21:19:19 19° 175° (S) 1,928 - -34.7°
Drops below altitude 10° 21:22:48 10° 129° (SE) 2,211 - -34.9°
Sets 21:25:28 0° 110° (ESE) 2,997 - -35.0°
